Regional Weather Roundup
Issued by NWS

Home | Current Version | Previous Version | Text Only | Print | Product List | Glossary Off
Versions: 1 2 3 4 5 6 7 8 9 10 11 12 13 14 15 16 17 18 19 20 21 22 23 24 25 26 27 28 29 30 31 32 33 34 35 36 37 38 39 40 41 42 43 44 45 46 47 48 49 50

000
ASUS43 KOAX 041802
RWRNE

WEATHER ROUNDUP FOR NEBRASKA
NATIONAL WEATHER SERVICE OMAHA NE
100 PM CDT FRI SEP 04 2015

NOTES: SATELLITE DATA IS BEING USED TO AUGMENT CLOUD COVER ABOVE
       12000 FEET.
       "FAIR" INDICATES FEW OR NO CLOUDS BELOW 12,000 FEET WITH NO
       SIGNIFICANT WEATHER AND/OR OBSTRUCTIONS TO VISIBILITY.

  * THESE STATIONS DO NOT REPORT WEATHER SUCH AS RAIN...SNOW OR FOG.

NEZ001>004-019>022-054>056-041900-
NEBRASKA PANHANDLE

CITY           SKY/WX    TMP DP  RH WIND       PRES   REMARKS
SCOTTSBLUFF    MOSUNNY   84  50  30 VRB3      29.91F
6HR MIN TEMP:  54; 6HR MAX TEMP:  84;

ALLIANCE       SUNNY     87  51  28 MISG      29.90F
6HR MIN TEMP:  51; 6HR MAX TEMP:  87;

CHADRON        SUNNY     88  49  25 W5        29.85S
6HR MIN TEMP:  58; 6HR MAX TEMP:  88;

KIMBALL        MOSUNNY   83  42  23 W6        29.97S
SIDNEY         SUNNY     90  43  19 N9        29.95S
6HR MIN TEMP:  52; 6HR MAX TEMP:  91;

$$

NEZ057>060-069>072-079>082-041900-
SOUTHWEST NEBRASKA

CITY           SKY/WX    TMP DP  RH WIND       PRES   REMARKS
NORTH PLATTE   MOSUNNY   83  62  49 SW5       29.84F
6HR MIN TEMP:  61; 6HR MAX TEMP:  83;

IMPERIAL       MOSUNNY   83  55  38 SW7       29.90S
6HR MIN TEMP:  62; 6HR MAX TEMP:  84;

LEXINGTON      SUNNY     86  63  45 SE13      29.85S
MC COOK        MOSUNNY   87  63  44 SW6       29.86S
6HR MIN TEMP:  68; 6HR MAX TEMP:  88; 6HR PCP: TRACE;

OGALLALA       MOSUNNY   83  55  38 SW3       29.89S
$$

NEZ005>010-023>029-035>040-094-041900-
NORTH CENTRAL NEBRASKA

CITY           SKY/WX    TMP DP  RH WIND       PRES   REMARKS
VALENTINE      SUNNY     89  60  37 S7        29.81S
6HR MIN TEMP:  64; 6HR MAX TEMP:  89;

AINSWORTH      SUNNY     85  66  52 S10       29.83S
BROKEN BOW     SUNNY     85  64  49 S10       29.85S
6HR MIN TEMP:  69; 6HR MAX TEMP:  85;

O`NEILL        SUNNY     86  65  49 S15G21    29.83S
ORD            SUNNY     86  63  45 S21G28    29.82F
6HR MIN TEMP:  73; 6HR MAX TEMP:  86;

THEDFORD       SUNNY     86  62  44 CALM      29.85S
$$

NEZ041-046>049-061>064-073>077-083>087-041900-
SOUTH CENTRAL NEBRASKA

CITY           SKY/WX    TMP DP  RH WIND       PRES   REMARKS
GRAND ISLAND   SUNNY     88  65  46 S23G30    29.86S HX  90
6HR MIN TEMP:  71; 6HR MAX TEMP:  88;

AURORA         SUNNY     87  65  47 S20G29    29.86S
HASTINGS       SUNNY     89  64  43 S20G30    29.85F HX  90
6HR MIN TEMP:  74; 6HR MAX TEMP:  89;

HEBRON         SUNNY     88  62  41 S21G30    29.89F
HOLDREGE       MOSUNNY   86  58  39 S21G26    29.86S
KEARNEY *      MOSUNNY   88  63  42 S20G25    29.85F
YORK           SUNNY     90  68  48 S22G28    29.86F HX  93
$$

NEZ011>018-030>034-042>045-041900-
NORTHEAST NEBRASKA

CITY           SKY/WX    TMP DP  RH WIND       PRES   REMARKS
NORFOLK        SUNNY     87  69  54 S20       29.84F HX  91
6HR MIN TEMP:  72; 6HR MAX TEMP:  87; 6HR PCP:  0.11;

ALBION         SUNNY     84  66  54 S15G21    29.85F
BLAIR          FAIR      83  69  63 S16       29.91S
COLUMBUS *     SUNNY     84  66  54 S14G24    29.85S
FREMONT        PTSUNNY   83  69  62 SE12      29.89S
TEKAMAH        PTSUNNY   83  71  67 S12       29.88F
6HR MIN TEMP:  71; 6HR MAX TEMP:  84; 6HR PCP:  0.02;

$$

NEZ050>053-065>068-078-088>093-041900-
SOUTHEAST NEBRASKA

CITY           SKY/WX    TMP DP  RH WIND       PRES   REMARKS
LINCOLN        MOSUNNY   89  69  51 S25G31    29.88S HX  93
6HR MIN TEMP:  72; 6HR MAX TEMP:  89; 6HR PCP:  0.04;

OMAHA EPPLEY   PTSUNNY   86  70  58 S14       29.90R HX  90
6HR MIN TEMP:  74; 6HR MAX TEMP:  86;

BEATRICE       MOSUNNY   87  68  53 S18G24    29.91S HX  90
FALLS CITY     MOSUNNY   91  67  44 S17G26    29.93F HX  94
6HR MIN TEMP:  71; 6HR MAX TEMP:  91;

NEBRASKA CITY  PTSUNNY   87  61  42 S16G23    29.92F
PLATTSMOUTH    CLOUDY    82  69  63 SE7       29.91R
$$

NEZ044-045-051>053-067-041900-
OMAHA AREA

CITY           SKY/WX    TMP DP  RH WIND       PRES   REMARKS
EPPLEY FIELD   PTSUNNY   86  70  58 S14       29.90R HX  90
6HR MIN TEMP:  74; 6HR MAX TEMP:  86;

BLAIR          PTSUNNY   83  69  63 S16       29.91S
FREMONT        PTSUNNY   83  69  62 SE12      29.89S
MILLARD        CLOUDY    83  71  67 S7        29.90S
OFFUTT AFB     CLOUDY    84  71  63 SE10      29.90R
PLATTSMOUTH    CLOUDY    82  69  63 SE7       29.91R
WAHOO          FAIR      84  70  63 S12G18    29.89S
$$


USA.gov is the U.S. government's official web portal to all federal, state and local government web resources and services.